Avoca, PA

5:32 AM EDT on July 26, 2017 (GMT -0400)
Wilkes-Barre-Scranton International

Weather History for KAVP - March, 2013

Change the Weather History Date:

Saturday, March 23, 2013

  Actual Average Record
Temperature  
Mean Temperature 36 °F 39 °F  
Max Temperature 42 °F 49 °F 81 °F (1938)
Min Temperature 29 °F 30 °F 9 °F (1934)
Degree Days  
Heating Degree Days 29 26  
Month to date heating degree days 716 680  
Since 1 July heating degree days 4940 5286  
Cooling Degree Days 0 0  
Month to date cooling degree days 0 0  
Year to date cooling degree days 0 0  
Moisture  
Dew Point 18 °F    
Average Humidity 52    
Maximum Humidity 63    
Minimum Humidity 40    
Precipitation  
Precipitation 0.00 in 0.09 in 2.05 in (1903)
Month to date precipitation 1.41 1.81  
Year to date precipitation 4.74 6.21  
Sea Level Pressure  
Sea Level Pressure 29.91 in    
Wind  
Wind Speed 15 mph (WNW)    
Max Wind Speed 28 mph    
Max Gust Speed 36 mph    
Visibility 10 miles    
Events      
T = Trace of Precipitation, MM = Missing Value Source: NWS Daily Summary

Daily Weather History Graph

Daily Weather History Graph

Search for Another Location

Airport or City:

Trip Planner

Search our weather history database for the weather conditions in past years. The results will help you decide how hot, cold, wet, or windy it might be!

Date:

Astronomy

Mar. 23, 2013 Rise Set
Actual Time 7:00 AM EDT 7:18 PM EDT
Civil Twilight 6:33 AM EDT 7:46 PM EDT
Nautical Twilight 6:00 AM EDT 8:18 PM EDT
Astronomical Twilight 5:27 AM EDT 8:51 PM EDT
Moon 3:41 PM EDT (3/23) 4:38 AM EDT (3/23)
Length of Visible Light 13h 13m
Length of Day
12h 17m
Waxing Gibbous, 85% of the Moon is Illuminated
Mar 23
Waxing Gibbous
Mar 27
Full
Apr 3
Last Quarter
Apr 10
New
Apr 18
First Quarter

Hourly Weather History & Observations

Time (EDT) Temp. Windchill Dew Point Humidity Pressure Visibility Wind Dir Wind Speed Gust Speed Precip Events Conditions
12:54 AM 30.9 °F 21.7 °F 16.0 °F 54% 29.91 in 10.0 mi WNW 11.5 mph 23.0 mph N/A   Overcast
1:54 AM 30.0 °F 21.7 °F 17.1 °F 59% 29.91 in 10.0 mi West 9.2 mph - N/A   Overcast
2:54 AM 30.0 °F 21.1 °F 17.1 °F 59% 29.90 in 10.0 mi WSW 10.4 mph 18.4 mph N/A   Overcast
3:54 AM 30.0 °F 22.4 °F 17.1 °F 59% 29.89 in 10.0 mi West 8.1 mph - N/A   Overcast
4:54 AM 30.0 °F 21.7 °F 18.0 °F 61% 29.89 in 10.0 mi West 9.2 mph 19.6 mph N/A   Overcast
5:54 AM 30.0 °F 19.5 °F 18.0 °F 61% 29.89 in 10.0 mi West 13.8 mph 24.2 mph N/A   Overcast
6:54 AM 30.0 °F 22.4 °F 18.0 °F 61% 29.89 in 10.0 mi WSW 8.1 mph 17.3 mph N/A   Overcast
7:54 AM 30.0 °F 24.1 °F 18.0 °F 61% 29.90 in 10.0 mi WSW 5.8 mph - N/A   Overcast
8:54 AM 30.2 °F 20.2 °F 19.4 °F 64% 29.88 in 10.0 mi NW 12.7 mph 20.7 mph N/A   Mostly Cloudy
9:54 AM 32.0 °F 21.6 °F 19.9 °F 61% 29.91 in 10.0 mi NW 15.0 mph 23.0 mph N/A   Overcast
10:54 AM 34.0 °F 22.4 °F 19.0 °F 54% 29.91 in 10.0 mi West 20.7 mph 31.1 mph N/A   Overcast
11:54 AM 35.1 °F 25.2 °F 19.0 °F 52% 29.92 in 10.0 mi WNW 16.1 mph 24.2 mph N/A   Overcast
12:54 PM 36.0 °F 25.6 °F 19.0 °F 50% 29.92 in 10.0 mi WNW 18.4 mph - N/A   Overcast
1:54 PM 37.0 °F 26.7 °F 18.0 °F 46% 29.90 in 10.0 mi WNW 19.6 mph 27.6 mph N/A   Overcast
2:54 PM 37.0 °F 26.7 °F 18.0 °F 46% 29.89 in 10.0 mi WNW 19.6 mph 27.6 mph N/A   Overcast
3:54 PM 39.9 °F 30.0 °F 17.1 °F 40% 29.88 in 10.0 mi WNW 21.9 mph 28.8 mph N/A   Mostly Cloudy
4:54 PM 39.0 °F 28.5 °F 17.1 °F 41% 29.89 in 10.0 mi WNW 23.0 mph 27.6 mph N/A   Overcast
5:54 PM 37.9 °F 27.6 °F 16.0 °F 41% 29.89 in 10.0 mi NW 20.7 mph 27.6 mph N/A   Overcast
6:54 PM 37.0 °F 26.7 °F 16.0 °F 42% 29.92 in 10.0 mi WNW 19.6 mph 25.3 mph N/A   Overcast
7:54 PM 36.0 °F 26.7 °F 17.1 °F 46% 29.94 in 10.0 mi NW 15.0 mph - N/A   Overcast
8:54 PM 34.0 °F 24.2 °F 18.0 °F 52% 29.96 in 10.0 mi NW 15.0 mph - N/A   Partly Cloudy
9:54 PM 33.1 °F 22.6 °F 19.0 °F 56% 29.95 in 10.0 mi WNW 16.1 mph - N/A   Mostly Cloudy
10:54 PM 33.1 °F 23.0 °F 19.0 °F 56% 29.96 in 10.0 mi WNW 15.0 mph 20.7 mph N/A   Overcast
11:54 PM 33.1 °F 25.5 °F 19.9 °F 59% 29.95 in 10.0 mi WNW 9.2 mph - N/A   Overcast